Regional Weather Roundup
Issued by NWS Wakefield, VA

Home | Current Version | Previous Version | Graphics & Text | Print | Product List | Glossary On
Versions: 1 2 3 4 5 6 7 8 9 10 11 12 13 14 15 16 17 18 19 20 21 22 23 24 25 26 27 28 29 30 31 32 33 34 35 36 37 38 39 40 41 42 43 44 45 46 47 48 49 50
000
ASUS41 KAKQ 141610
RWRAKQ

REGIONAL WEATHER ROUNDUP
NATIONAL WEATHER SERVICE WAKEFIELD VA
1200 PM EDT SUN SEP 14 2014

Note: "fair" indicates few or no clouds below 12,000 feet with no
significant weather and/or obstructions to visibility. * = Denotes
station may not report precipitation (e.g., rain,snow,etc.),
thunder or fog.

VAZ042-051-052>054-056-141700-
NORTHERN VIRGINIA

CITY           SKY/WX    TMP DP  RH WIND       PRES   REMARKS
WASH NATIONAL  PTSUNNY   69  46  43 NE7       30.31F
DULLES         PTSUNNY   64  47  53 N8        30.31F
FORT BELVOIR   MOSUNNY   65  46  50 VRB2      30.31F
QUANTICO       MOSUNNY   66  46  48 NE7       30.32F
FREDERICKSBRG* MOSUNNY   67  50  54 NE5       30.29F
STAFFORD*      MOSUNNY   64  50  59 E5        30.35F
WARRENTON      MOSUNNY   66  53  64 E5        30.31F
CULPEPER*      MOSUNNY  N/A N/A N/A N3        30.32S
MANASSAS*      SUNNY     64  48  55 N6        30.32F
LEESBURG*      MOSUNNY   63  48  59 N6        30.33S
WINCHESTER     PTSUNNY   61  45  55 CALM      30.32F
FRONT ROYAL*   MOSUNNY   63  46  55 CALM      30.31F
LURAY*         MOSUNNY   64  46  52 NE5       30.31F
$$

VAZ048-049-060>072-079>083-141700-
CENTRAL AND SOUTH CENTRAL VIRGINIA...AND NORTH CENTRAL NORTH CAROLINA

CITY           SKY/WX    TMP DP  RH WIND       PRES   REMARKS
RICHMOND       PTSUNNY   70  51  51 NW5       30.29F
CHESTERFIELD*  MOSUNNY  N/A N/A N/A NE7       30.30F
PETERSBURG*    MOSUNNY   68  49  51 N7        30.29F
HANOVER        MOSUNNY   66  52  60 CALM      30.31F
TAPPAHANNOCK*  MOSUNNY   68  47  47 NE3       30.29F
CHARLOTTSVILLE CLOUDY    64  46  52 N7        30.30F
ORANGE*        MOSUNNY   64  46  52 NW7       30.32F
LOUISA*        MOSUNNY   66  48  52 NE5       30.30F
FARMVILLE*     CLOUDY    68  48  49 NE8       30.29F
CREWE*         CLOUDY    69  51  51 N5        30.29F
FORT PICKETT*  CLOUDY    66  52  60 NE6       30.30S
LUNENBURG*     CLOUDY    65  52  64 N6        30.29F
SOUTH HILL*    PTSUNNY   66  57  72 N7        30.34S
LAWRENCEVILLE* CLOUDY    65  58  76 N3        30.29R
ROANOKE RAPIDS CLOUDY    68  57  68 NE9       30.27S
RALEIGH        CLOUDY    68  55  63 NE8       30.28S
$$

VAZ088>098-141700-
SOUTHEAST VIRGINIA

CITY           SKY/WX    TMP DP  RH WIND       PRES   REMARKS
NORFOLK        SUNNY     70  52  52 N8        30.27S
VIRGINIA BEACH PTSUNNY   70  55  59 NE12G20   30.26S
NORFOLK NAVAL  PTSUNNY   71  56  58 NE14      30.28F
WEST POINT*    NOT AVBL
NEWPORT NEWS   MOSUNNY   74  57  55 NE12      30.27F
LANGLEY AFB    MOSUNNY   69  57  64 NE9G20    30.27S
FORT EUSTIS    MOSUNNY   72  51  48 NE6       30.25F
WILLIAMSBURG*  MOSUNNY   75  59  57 CALM      30.28F
HR EXEC AP*    MOSUNNY   72  57  60 E9        30.28F
FRANKLIN*        N/A     72  57  60 NE10      30.27R
WAKEFIELD      MOSUNNY   70  55  59 NE5       30.27F
$$

VAZ020-022-025-037-045-141700-
WEST CENTRAL AND SOUTHWEST VIRGINIA

CITY           SKY/WX    TMP DP  RH WIND       PRES   REMARKS
STAUNTON*      CLOUDY    61  45  56 CALM      30.34F
HOT SPRINGS VA NOT AVBL
LYNCHBURG      CLOUDY    61  47  59 NE8       30.33F
DANVILLE       CLOUDY    64  51  62 NE8       30.32S
SOUTH BOSTON*  NOT AVBL
MARTINSVILLE   CLOUDY    64  52  63 NE8       30.35S
ROANOKE        CLOUDY    61  49  64 SE8       30.34F
BLACKSBURG     CLOUDY    57  55  94 SE7       30.35S
DUBLIN*        CLOUDY    60  56  85 SE5       30.34S
MARION*        CLOUDY    60  55  82 E9        30.34S
HILLSVILLE*    CLOUDY    58  52  81 E7        30.33F
RICHLANDS*     CLOUDY    68  58  72 SE5       30.28R
WISE*          CLOUDY    64  55  72 N3        30.29S
ABINGDON*      CLOUDY    67  59  76 E9        30.27S
$$

MDZ021>025-VAZ099-100-141700-
SOUTHERN MARYLAND AND THE DELMARVA PENINSULA

CITY           SKY/WX    TMP DP  RH WIND       PRES   REMARKS
PATUXENT RIVER PTSUNNY   66  49  54 NE8       30.29F
BAY BRIDGE APT   N/A     61  48  63 N8        30.30F
LEONARDTOWN    PTSUNNY   63  50  63 NE5       30.30F
DOVER          MOSUNNY   64  51  62 N8        30.27F
GEORGETOWN     PTSUNNY   66  50  56 NE10      30.28F
EASTON         MOSUNNY   64  52  63 N7        30.34S
CAMBRIDGE      PTSUNNY   64  50  59 NE8       30.28F
SALISBURY      PTSUNNY   69  52  54 NW6       30.27F
OCEAN CITY     PTSUNNY   68  50  52 N9        30.27S
WALLOPS ISLAND PTSUNNY   69  53  56 N9        30.28S
ACCOMACK*      MOSUNNY   68  50  52 N6        30.27S
$$

NCZ012>017-030>032-141700-
EASTERN NORTH CAROLINA

CITY           SKY/WX    TMP DP  RH WIND       PRES   REMARKS
ELIZABETH CITY PTSUNNY   72  61  68 NE15      30.24F
AHOSKIE*       PTSUNNY   70  59  67 NE5       30.26S
EDENTON*       PTSUNNY   73  61  67 NE9       30.24F
CURRITUCK*     CLOUDY    71  57  61 NE13G18   30.26S
KILL DEVIL HLS PTSUNNY   73  61  67 NE8G16    30.22S
MANTEO         CLOUDY    72  62  68 NE16      30.23S
CAPE HATTERAS  CLOUDY    72  68  87 NE13G21   30.20S
TARBORO*       CLOUDY    73  61  66 NE7       30.26S
GOLDSBORO      CLOUDY    70  65  82 NE7       30.22F
WASHINGTON     PTSUNNY   71  61  71 NE7       30.24S
GREENVILLE     PTSUNNY   73  57  56 E10G16    30.25S
NEW BERN       CLOUDY    74  63  68 NE12      30.24F
WILMINGTON     CLOUDY    74  66  76 NE9       30.21S
$$

VAZ048-141700-
ELSEWHERE

CITY           SKY/WX    TMP DP  RH WIND       PRES   REMARKS
HARRISBURG PA  PTSUNNY   61  44  53 NW8       30.30F
BALTIMORE      PTSUNNY   64  46  52 CALM      30.29F
ANNAPOLIS      MOSUNNY   63  48  58 E6        30.30F
ANDREWS AFB    MOSUNNY   64  48  57 N6        30.30F
WILMINGTON DE  MOSUNNY   64  48  56 MISG      30.29F
PHILADELPHIA   PTSUNNY   62  46  55 CALM      30.28F
WILDWOOD NJ*   MOSUNNY   64  50  59 NW5       30.27F
ATLANTIC CITY  MOSUNNY   64  53  67 CALM      30.27F
HENDERSON NC   CLOUDY    65  54  67 N6        30.29S
GREENSBORO     PTSUNNY   65  55  70 N12       30.29F
ROCKY MOUNT    PTSUNNY   71  59  65 NE8       30.26S
FAYETTEVILLE   CLOUDY    68  60  75 NE7       30.24F
CHARLOTTE      CLOUDY    69  54  58 NE8       30.28F
$$

VAZ100-141700-
MARINE

STATION/POSITION TIME  TEMP    WIND        PRES    WAVE   SWELL
                       AIR SEA DIR/SP/G            HT/PER HT/PER
                 (UTC) (F)     (DEG/KT/KT) (MB)    (FT/S) (FT/S)
44066 TX TWR #4  1600   62 73   10/ 12/ 16 1023.0S   5/ 6   3/ 6
CAPE MAY NJ      1600   63 75  340/  4/  8 1024.5F
LEWES DE         1600   61 71  360/ 11/ 13 1025.0S
15NM E FENWICK I 1600   63 72              1024.3F   4/ 7
OCEAN-CITY-INLET 1600   64 71   20/  8/ 11 1024.4F
WACHAPREAGUE VA  1600   68 72   20/  4/  7 1025.0R
THOMAS POINT MD  1600   60 74   20/  9/ 10 1027.0F
GOOSES REEF MD   1600   62      50/  8/ 12 1026.4S
COVE POINT MD    1600   62      30/  7/ 10 1025.8S
SOLOMONS ISLAND  1600      76                N/A
BISHOPS HEAD MD  1600   64 70   30/  8/ 10 1025.1F
PINEY POINT MD   1600           10/  6/  7   N/A
POTOMAC MD       1600   64      30/ 10/ 14 1025.3S
CAMBRIDGE MD     1600   63 74   30/  8/  9 1025.4F
LEWISETTA VA     1600   65 73   50/  7/ 10 1025.1F
RAPPAHANNOCK LGT 1600          360/ 11/ 13 1025.7R
STINGRAY PT      1600   65      30/ 10/ 14   N/A
YORK RVR RNG VA  1600   66      30/ 12/ 14 1024.7S
YORKTOWN VA      1600   67 77   30/  9/ 11 1024.9S
JAMESTOWN VA     1600   67      60/  6/ 10   N/A
DOMINION TERM VA 1600   69      40/  7/ 11 1025.2S
KIPTOPEKE VA     1600      79   50/  6/ 10   N/A
CHES BAY BRIDGE  1600   67 76   20/  6/ 10 1024.5F
CAPE HENRY VA    1600   67      20/ 12/ 15 1023.7F
CHESAPEAKE LGHT  1500   67      40/ 19/ 21 1025.0R
WILLOUBY STN VA  1600   66      40/ 14/ 16 1023.9S
S CRANEY ISL VA  1600          350/ 14/ 17 1024.6F
CAPE HENRY BUOY  1500      76                N/A     5/ 7
1ST LANDING BUOY 1600   68      30/ 10/ 14 1024.6S
CAPE CHARLES BUO 1600      75                N/A     5/ 6   2/13
OFFSHORE WE BUOY 1600      75                N/A     6/ 6   2/11
64NM E OF VA BCH 1600   71 79   10/ 17/ 21 1022.5F   6/ 7   2/15
DUCK PIER NC     1600   69 77   20/ 18/ 21 1022.9S
44100 DUCK FRF   1600      75                N/A     7/ 7
44056 DUCK FRF   1600                        N/A     5/ 7
OREGON INLET NC  1600   72 78   10/ 18/ 20 1023.0F
HATTERAS NC      1600   74 80   20/ 14/ 21 1023.1S
DIAMOND SHLS NC  1600   75     360/ 16/ 19 1022.0F   4/ 5   2/13
CAPE LOOKOUT NC  1500   73      20/ 14/ 18 1022.9R
$$


USA.gov is the U.S. government's official web portal to all federal, state and local government web resources and services.